RYR63FM LEMD-GCLP

Flight info

Callsign RYR63FM
Flight time N/A
Altitude 35000
Route VTB DCT INPAN DCT CRISA DCT HIJ DCT SVL DCT CLANA DCT KORNO UN857 TERTO
Aircraft B738/M-SDE2E3FGHIRWXY/LB1

Departure

Time N/A
Airport Adolfo Suárez Madrid–Barajas Airport (LEMD)

Arrival

Time 2026-05-06 15:12
Airport Gran Canaria Airport (GCLP)
Time Latitude Longitude Altitude Speed Heading
2026-05-06 13:37 34.36145 -8.86840 35009 ft 389 kts 221°
2026-05-06 13:38 34.31904 -8.90908 35012 ft 389 kts 221°
2026-05-06 13:38 34.27652 -8.94985 35009 ft 390 kts 221°
2026-05-06 13:39 34.23426 -8.99033 35003 ft 390 kts 221°
2026-05-06 13:39 34.19169 -9.03105 35004 ft 390 kts 221°
2026-05-06 13:40 34.14905 -9.07178 35009 ft 391 kts 221°
2026-05-06 13:40 34.10636 -9.11251 35011 ft 391 kts 221°
2026-05-06 13:41 34.06367 -9.15318 35011 ft 391 kts 221°
2026-05-06 13:41 34.02088 -9.19390 35016 ft 391 kts 221°
2026-05-06 13:42 33.97813 -9.23452 35013 ft 391 kts 221°
2026-05-06 13:42 33.93562 -9.27487 35011 ft 391 kts 221°
2026-05-06 13:43 33.89283 -9.31543 35012 ft 391 kts 221°
2026-05-06 13:43 33.84995 -9.35601 35012 ft 391 kts 221°
2026-05-06 13:44 33.80731 -9.39632 35013 ft 391 kts 221°
2026-05-06 13:44 33.76444 -9.43679 35011 ft 392 kts 221°
2026-05-06 13:45 33.72147 -9.47730 35009 ft 392 kts 221°
2026-05-06 13:45 33.65725 -9.53776 35015 ft 392 kts 221°
2026-05-06 13:46 33.61420 -9.57821 35018 ft 392 kts 221°
2026-05-06 13:46 33.57114 -9.61863 35014 ft 393 kts 221°
2026-05-06 13:47 33.52803 -9.65903 35015 ft 393 kts 221°
2026-05-06 13:47 33.48504 -9.69928 35015 ft 393 kts 221°
2026-05-06 13:48 33.44179 -9.73971 35009 ft 394 kts 221°
2026-05-06 13:48 33.39881 -9.77984 35008 ft 394 kts 221°
2026-05-06 13:49 33.35550 -9.82023 35020 ft 394 kts 221°
2026-05-06 13:49 33.31209 -9.86066 35018 ft 395 kts 221°
2026-05-06 13:50 33.26871 -9.90100 35016 ft 395 kts 221°
2026-05-06 13:50 33.22518 -9.94144 35018 ft 396 kts 221°
2026-05-06 13:51 33.18197 -9.98153 35019 ft 396 kts 221°
2026-05-06 13:51 33.13833 -10.02196 35010 ft 396 kts 221°
2026-05-06 13:52 33.09464 -10.06240 35002 ft 397 kts 221°
2026-05-06 13:52 33.05116 -10.10260 35014 ft 397 kts 221°
2026-05-06 13:53 33.00729 -10.14309 35012 ft 398 kts 221°
2026-05-06 13:53 32.96368 -10.18324 35013 ft 398 kts 221°
2026-05-06 13:54 32.91971 -10.22367 35016 ft 398 kts 221°
2026-05-06 13:54 32.87603 -10.26381 35011 ft 399 kts 221°
2026-05-06 13:55 32.83199 -10.30423 35017 ft 399 kts 221°
2026-05-06 13:55 32.78802 -10.34454 35013 ft 399 kts 221°
2026-05-06 13:56 32.74430 -10.38456 35015 ft 399 kts 221°
2026-05-06 13:56 32.70020 -10.42488 35015 ft 399 kts 221°
2026-05-06 13:57 32.65622 -10.46505 35016 ft 399 kts 221°
2026-05-06 13:57 32.61239 -10.50502 35015 ft 399 kts 221°
2026-05-06 13:58 32.56828 -10.54520 35018 ft 399 kts 220°
2026-05-06 13:58 32.53159 -10.57859 35018 ft 399 kts 220°
2026-05-06 13:59 32.48746 -10.61869 35018 ft 399 kts 220°
2026-05-06 13:59 32.44365 -10.65845 35016 ft 398 kts 220°
2026-05-06 14:00 32.39953 -10.69845 35019 ft 398 kts 220°
2026-05-06 14:00 32.35579 -10.73805 35012 ft 397 kts 220°
2026-05-06 14:01 32.31192 -10.77771 35013 ft 396 kts 220°
2026-05-06 14:01 32.26803 -10.81735 35023 ft 396 kts 220°
2026-05-06 14:02 32.22444 -10.85667 35016 ft 395 kts 220°
2026-05-06 14:02 32.18054 -10.89622 35017 ft 395 kts 220°
2026-05-06 14:03 32.13674 -10.93563 35017 ft 395 kts 220°
2026-05-06 14:03 32.09332 -10.97464 35019 ft 394 kts 220°
2026-05-06 14:04 32.04964 -11.01385 35016 ft 394 kts 220°
2026-05-06 14:04 32.00583 -11.05312 35017 ft 394 kts 220°
2026-05-06 14:05 31.96242 -11.09199 35023 ft 394 kts 220°
2026-05-06 14:05 31.91872 -11.13107 35018 ft 394 kts 220°
2026-05-06 14:06 31.87494 -11.17018 35023 ft 394 kts 220°
2026-05-06 14:06 31.83151 -11.20893 35017 ft 394 kts 220°
2026-05-06 14:07 31.78771 -11.24797 35018 ft 394 kts 220°
2026-05-06 14:07 31.74426 -11.28664 35021 ft 393 kts 220°
2026-05-06 14:08 31.70057 -11.32555 35022 ft 393 kts 220°
2026-05-06 14:08 31.65693 -11.36441 35017 ft 393 kts 220°
2026-05-06 14:09 31.61362 -11.40294 35017 ft 392 kts 220°
2026-05-06 14:09 31.57010 -11.44160 35023 ft 392 kts 220°
2026-05-06 14:10 31.52666 -11.48015 35024 ft 391 kts 220°
2026-05-06 14:10 31.48317 -11.51870 35025 ft 391 kts 220°
2026-05-06 14:11 31.43992 -11.55699 35021 ft 390 kts 220°
2026-05-06 14:11 31.39676 -11.59515 35023 ft 390 kts 220°
2026-05-06 14:12 31.35344 -11.63341 35024 ft 389 kts 220°
2026-05-06 14:12 31.31015 -11.67159 35023 ft 389 kts 219°
2026-05-06 14:13 31.26687 -11.70973 35025 ft 389 kts 219°
2026-05-06 14:13 31.22384 -11.74759 35028 ft 388 kts 219°
2026-05-06 14:14 31.18055 -11.78565 35021 ft 388 kts 219°
2026-05-06 14:14 31.13757 -11.82339 35028 ft 388 kts 219°
2026-05-06 14:15 31.09424 -11.86139 35024 ft 388 kts 219°
2026-05-06 14:15 31.05123 -11.89906 35029 ft 388 kts 219°
2026-05-06 14:16 31.00794 -11.93694 35035 ft 388 kts 219°
2026-05-06 14:16 30.96456 -11.97485 35032 ft 388 kts 219°
2026-05-06 14:17 30.92129 -12.01262 35027 ft 389 kts 219°
2026-05-06 14:17 30.87819 -12.05020 35028 ft 389 kts 219°
2026-05-06 14:18 30.83477 -12.08802 35028 ft 388 kts 219°
2026-05-06 14:18 30.79153 -12.12564 35027 ft 388 kts 219°
2026-05-06 14:19 30.74821 -12.16327 35028 ft 388 kts 219°
2026-05-06 14:19 30.70503 -12.20076 35031 ft 387 kts 219°
2026-05-06 14:20 30.66195 -12.23811 35031 ft 386 kts 219°
2026-05-06 14:20 30.61890 -12.27538 35029 ft 385 kts 219°
2026-05-06 14:21 30.57591 -12.31258 35030 ft 385 kts 219°
2026-05-06 14:21 30.53305 -12.34963 35028 ft 384 kts 219°
2026-05-06 14:22 30.48983 -12.38689 35028 ft 383 kts 219°
2026-05-06 14:22 30.44721 -12.42350 35032 ft 383 kts 219°
2026-05-06 14:23 30.40444 -12.46018 35033 ft 382 kts 219°
2026-05-06 14:23 30.36186 -12.49668 35034 ft 381 kts 219°
2026-05-06 14:24 30.31912 -12.53330 35029 ft 381 kts 219°
2026-05-06 14:24 30.27658 -12.56970 35029 ft 381 kts 219°
2026-05-06 14:25 30.23379 -12.60627 35027 ft 380 kts 219°
2026-05-06 14:25 30.19147 -12.64241 35029 ft 380 kts 219°
2026-05-06 14:26 30.14887 -12.67875 35031 ft 379 kts 219°
2026-05-06 14:26 30.10636 -12.71497 35028 ft 379 kts 219°
2026-05-06 14:27 30.06419 -12.75097 35032 ft 378 kts 219°
2026-05-06 14:27 30.02187 -12.78715 35028 ft 378 kts 219°
2026-05-06 14:28 29.97956 -12.82329 35023 ft 378 kts 219°
2026-05-06 14:28 29.93730 -12.85934 35029 ft 377 kts 219°
2026-05-06 14:29 29.89510 -12.89532 35028 ft 377 kts 219°
2026-05-06 14:29 29.85295 -12.93119 35037 ft 376 kts 219°
2026-05-06 14:30 29.81097 -12.96689 35033 ft 376 kts 219°
2026-05-06 14:30 29.76885 -13.00267 35025 ft 376 kts 219°
2026-05-06 14:31 29.72696 -13.03821 35032 ft 375 kts 219°
2026-05-06 14:31 29.68490 -13.07387 35034 ft 375 kts 219°
2026-05-06 14:32 29.64294 -13.10940 35028 ft 375 kts 219°
2026-05-06 14:32 29.60087 -13.14498 35030 ft 374 kts 219°
2026-05-06 14:33 29.55906 -13.18031 35033 ft 374 kts 219°
2026-05-06 14:33 29.51710 -13.21572 35029 ft 374 kts 219°
2026-05-06 14:34 29.47519 -13.25106 35028 ft 373 kts 219°
2026-05-06 14:34 29.44031 -13.28045 35028 ft 373 kts 219°
2026-05-06 14:35 29.39164 -13.32141 35029 ft 373 kts 219°
2026-05-06 14:35 29.35653 -13.35093 35028 ft 373 kts 219°
2026-05-06 14:36 29.31502 -13.38579 35027 ft 372 kts 219°
2026-05-06 14:36 29.27314 -13.42093 35029 ft 372 kts 219°
2026-05-06 14:37 29.23156 -13.45579 35024 ft 372 kts 218°
2026-05-06 14:37 29.18975 -13.49080 35030 ft 370 kts 218°
2026-05-06 14:38 29.14880 -13.52642 35034 ft 370 kts 221°
2026-05-06 14:38 29.10989 -13.56499 35026 ft 371 kts 223°
2026-05-06 14:39 29.07115 -13.60398 35023 ft 371 kts 223°
2026-05-06 14:39 29.03210 -13.64288 35023 ft 372 kts 223°
2026-05-06 14:40 28.99353 -13.68102 35009 ft 357 kts 222°
2026-05-06 14:40 28.95618 -13.71784 35022 ft 351 kts 222°
2026-05-06 14:41 28.93764 -13.73611 34907 ft 353 kts 222°
2026-05-06 14:41 28.91924 -13.75422 34677 ft 349 kts 222°
2026-05-06 14:41 28.90092 -13.77225 34288 ft 345 kts 222°
2026-05-06 14:41 28.88280 -13.79006 33950 ft 341 kts 222°
2026-05-06 14:42 28.86478 -13.80777 33528 ft 339 kts 222°
2026-05-06 14:42 28.84721 -13.82504 33144 ft 336 kts 222°
2026-05-06 14:42 28.82958 -13.84234 32782 ft 333 kts 222°
2026-05-06 14:42 28.81209 -13.85951 32412 ft 330 kts 222°
2026-05-06 14:43 28.79457 -13.87670 32045 ft 327 kts 222°
2026-05-06 14:43 28.77757 -13.89337 31713 ft 325 kts 222°
2026-05-06 14:43 28.76031 -13.91029 31361 ft 322 kts 223°
2026-05-06 14:43 28.74353 -13.92673 31022 ft 320 kts 223°
2026-05-06 14:44 28.72665 -13.94326 30684 ft 319 kts 223°
2026-05-06 14:44 28.70982 -13.95974 30356 ft 317 kts 223°
2026-05-06 14:44 28.69310 -13.97610 30019 ft 318 kts 223°
2026-05-06 14:45 28.65838 -14.01011 29262 ft 341 kts 223°
2026-05-06 14:45 28.64043 -14.02766 28852 ft 340 kts 223°
2026-05-06 14:45 28.62246 -14.04520 28492 ft 336 kts 223°
2026-05-06 14:45 28.60472 -14.06249 28108 ft 334 kts 223°
2026-05-06 14:46 28.58717 -14.07961 27762 ft 330 kts 223°
2026-05-06 14:46 28.56994 -14.09641 27396 ft 328 kts 223°
2026-05-06 14:46 28.55267 -14.11325 27047 ft 326 kts 223°
2026-05-06 14:46 28.53545 -14.13003 26694 ft 324 kts 223°
2026-05-06 14:47 28.51835 -14.14669 26349 ft 322 kts 223°
2026-05-06 14:47 28.50136 -14.16324 26007 ft 320 kts 223°
2026-05-06 14:47 28.48447 -14.17968 25677 ft 318 kts 223°
2026-05-06 14:47 28.46763 -14.19607 25335 ft 317 kts 223°
2026-05-06 14:48 28.45069 -14.21256 25001 ft 316 kts 223°
2026-05-06 14:48 28.43426 -14.22853 24671 ft 315 kts 223°
2026-05-06 14:48 28.41757 -14.24474 24335 ft 314 kts 223°
2026-05-06 14:48 28.40076 -14.26106 24006 ft 313 kts 223°
2026-05-06 14:49 28.38440 -14.27692 23690 ft 314 kts 223°
2026-05-06 14:49 28.36767 -14.29314 23297 ft 316 kts 223°
2026-05-06 14:49 28.35079 -14.30950 22943 ft 322 kts 223°
2026-05-06 14:49 28.33360 -14.32616 22593 ft 328 kts 223°
2026-05-06 14:50 28.31618 -14.34303 22219 ft 327 kts 223°
2026-05-06 14:50 28.29886 -14.35979 21860 ft 325 kts 223°
2026-05-06 14:50 28.28166 -14.37642 21518 ft 323 kts 223°
2026-05-06 14:50 28.26462 -14.39289 21180 ft 321 kts 223°
2026-05-06 14:51 28.24787 -14.40908 20841 ft 319 kts 223°
2026-05-06 14:51 28.23102 -14.42536 20507 ft 317 kts 223°
2026-05-06 14:51 28.21422 -14.44160 20171 ft 315 kts 223°
2026-05-06 14:51 28.19755 -14.45768 19836 ft 314 kts 223°
2026-05-06 14:52 28.18097 -14.47369 19504 ft 312 kts 223°
2026-05-06 14:52 28.16442 -14.48966 19175 ft 311 kts 223°
2026-05-06 14:52 28.14797 -14.50554 18848 ft 310 kts 223°
2026-05-06 14:52 28.13156 -14.52135 18525 ft 308 kts 223°
2026-05-06 14:53 28.11520 -14.53712 18183 ft 307 kts 223°
2026-05-06 14:53 28.09893 -14.55280 17812 ft 306 kts 223°
2026-05-06 14:53 28.08294 -14.56820 17468 ft 305 kts 223°
2026-05-06 14:53 28.06684 -14.58370 17134 ft 303 kts 223°
2026-05-06 14:54 28.05081 -14.59913 16807 ft 301 kts 223°
2026-05-06 14:54 28.03490 -14.61443 16482 ft 299 kts 223°
2026-05-06 14:54 28.01909 -14.62963 16160 ft 297 kts 223°
2026-05-06 14:54 28.00335 -14.64474 15843 ft 296 kts 223°
2026-05-06 14:55 27.98830 -14.66050 15523 ft 293 kts 227°
2026-05-06 14:55 27.97417 -14.67709 15214 ft 292 kts 229°
2026-05-06 14:55 27.96043 -14.69368 14910 ft 290 kts 229°
2026-05-06 14:55 27.94659 -14.71037 14591 ft 290 kts 229°
2026-05-06 14:56 27.93280 -14.72694 14283 ft 289 kts 229°
2026-05-06 14:56 27.91899 -14.74344 13974 ft 288 kts 229°
2026-05-06 14:56 27.90513 -14.75992 13638 ft 288 kts 229°
2026-05-06 14:56 27.89133 -14.77628 13300 ft 287 kts 229°
2026-05-06 14:57 27.87756 -14.79258 12977 ft 285 kts 228°
2026-05-06 14:57 27.86386 -14.80877 12660 ft 284 kts 228°
2026-05-06 14:57 27.85038 -14.82468 12360 ft 282 kts 228°
2026-05-06 14:57 27.83680 -14.84071 12053 ft 281 kts 228°
2026-05-06 14:58 27.82333 -14.85659 11754 ft 279 kts 228°
2026-05-06 14:58 27.80987 -14.87246 11453 ft 278 kts 228°
2026-05-06 14:58 27.79645 -14.88826 11157 ft 277 kts 228°
2026-05-06 14:58 27.78308 -14.90401 10856 ft 277 kts 228°
2026-05-06 14:59 27.76994 -14.91949 10563 ft 276 kts 228°
2026-05-06 14:59 27.75653 -14.93527 10332 ft 272 kts 228°
2026-05-06 14:59 27.74358 -14.95050 10212 ft 265 kts 228°
2026-05-06 14:59 27.73099 -14.96530 10090 ft 258 kts 228°
2026-05-06 15:00 27.71871 -14.97972 9979 ft 250 kts 228°
2026-05-06 15:00 27.70681 -14.99369 9866 ft 243 kts 228°
2026-05-06 15:00 27.69603 -15.00769 9678 ft 237 kts 241°
2026-05-06 15:00 27.68876 -15.02408 9477 ft 231 kts 246°
2026-05-06 15:01 27.68186 -15.04049 9225 ft 230 kts 246°
2026-05-06 15:01 27.67491 -15.05678 8981 ft 229 kts 246°
2026-05-06 15:01 27.66796 -15.07290 8736 ft 230 kts 246°
2026-05-06 15:01 27.66094 -15.08908 8488 ft 228 kts 246°
2026-05-06 15:02 27.65394 -15.10514 8257 ft 228 kts 245°
2026-05-06 15:02 27.64692 -15.12120 8020 ft 227 kts 246°
2026-05-06 15:02 27.63996 -15.13722 7771 ft 226 kts 248°
2026-05-06 15:02 27.63730 -15.15436 7521 ft 223 kts 277°
2026-05-06 15:03 27.64115 -15.17109 7334 ft 226 kts 291°
2026-05-06 15:03 27.64718 -15.18802 7088 ft 230 kts 292°
2026-05-06 15:03 27.65317 -15.20444 6844 ft 228 kts 293°
2026-05-06 15:03 27.65911 -15.22098 6593 ft 227 kts 292°
2026-05-06 15:04 27.66500 -15.23758 6336 ft 228 kts 292°
2026-05-06 15:04 27.67086 -15.25420 6074 ft 227 kts 292°
2026-05-06 15:04 27.67667 -15.27070 5824 ft 225 kts 292°
2026-05-06 15:04 27.68242 -15.28707 5582 ft 226 kts 293°
2026-05-06 15:05 27.68822 -15.30361 5350 ft 226 kts 293°
2026-05-06 15:05 27.69400 -15.32011 5119 ft 226 kts 293°
2026-05-06 15:05 27.69970 -15.33643 4958 ft 220 kts 293°
2026-05-06 15:05 27.70527 -15.35239 4841 ft 218 kts 293°
2026-05-06 15:06 27.71088 -15.36842 4627 ft 224 kts 293°
2026-05-06 15:06 27.71669 -15.38504 4381 ft 229 kts 294°
2026-05-06 15:06 27.72248 -15.40163 4150 ft 233 kts 294°
2026-05-06 15:06 27.72869 -15.41905 3899 ft 235 kts 298°
2026-05-06 15:07 27.73902 -15.43272 3612 ft 227 kts 326°
2026-05-06 15:07 27.75257 -15.44115 3378 ft 218 kts 336°
2026-05-06 15:07 27.76162 -15.44588 3211 ft 212 kts 336°
2026-05-06 15:07 27.77535 -15.45022 3007 ft 200 kts
2026-05-06 15:08 27.79293 -15.44606 2712 ft 192 kts 14°
2026-05-06 15:08 27.80155 -15.44351 2566 ft 188 kts 16°
2026-05-06 15:08 27.81355 -15.43905 2321 ft 180 kts 20°
2026-05-06 15:08 27.82485 -15.43415 2081 ft 167 kts 21°
2026-05-06 15:09 27.83531 -15.42950 1872 ft 155 kts 21°
2026-05-06 15:09 27.84478 -15.42527 1713 ft 140 kts 22°
2026-05-06 15:09 27.85389 -15.42123 1484 ft 140 kts 22°
2026-05-06 15:09 27.86299 -15.41719 1305 ft 141 kts 22°
2026-05-06 15:10 27.87205 -15.41316 1122 ft 135 kts 24°
2026-05-06 15:10 27.88092 -15.40921 929 ft 137 kts 23°
2026-05-06 15:10 27.88995 -15.40520 733 ft 144 kts 24°
2026-05-06 15:10 27.89913 -15.40113 571 ft 142 kts 22°
2026-05-06 15:11 27.90827 -15.39712 359 ft 140 kts 23°
2026-05-06 15:11 27.91721 -15.39301 172 ft 137 kts 22°
2026-05-06 15:11 27.92580 -15.38924 70 ft 122 kts 22°
2026-05-06 15:11 27.93253 -15.38631 57 ft 83 kts 21°
2026-05-06 15:12 27.93626 -15.38467 54 ft 38 kts 21°
2026-05-06 15:12 27.93856 -15.38426 53 ft 27 kts 360°
2026-05-06 15:12 27.94013 -15.38461 48 ft 15 kts 326°
2026-05-06 15:12 27.94068 -15.38559 47 ft 15 kts 289°
2026-05-06 15:13 27.94028 -15.38646 48 ft 14 kts 201°
2026-05-06 15:13 27.93938 -15.38681 49 ft 13 kts 199°
2026-05-06 15:13 27.93869 -15.38714 51 ft 6 kts 205°
2026-05-06 15:13 27.93840 -15.38746 51 ft 6 kts 257°
2026-05-06 15:14 27.93851 -15.38791 51 ft 6 kts 290°
2026-05-06 15:14 27.93857 -15.38813 49 ft 2 kts 288°
2026-05-06 15:14 27.93859 -15.38818 51 ft 0 kts 288°